Location: Ca�n Bargall�
(41.4594°N, 1.8818°E)
Time: 05:44:04
(UTC+00:00)

Daily predictions for brighter satellites

Satellite Brightness Start Highest point End
(mag) Time Altitude Azimuth Time Altitude Azimuth Time Altitude Azimuth
Cosmos 2344 4.3 03:12:16 44° E 03:12:16 44° E 03:18:14 10° NE
CENTAUR R/B 2.9 04:00:50 54° SE 04:01:15 55° ESE 04:07:47 10° NE
NOSS 3-2 (A) 3.6 04:07:12 61° ENE 04:07:12 61° ENE 04:12:27 10° NE
NOSS 3-2 (C) 4.1 04:10:31 32° SSE 04:12:34 46° ESE 04:18:22 10° NE
Cosmos 2034 Rocket 4.2 04:12:35 26° N 04:16:12 69° E 04:22:26 10° SSE
Cosmos 1570 Rocket 4.5 04:28:17 41° NNE 04:29:52 57° ENE 04:35:02 10° SSE
USA 238 DEB 3.5 04:36:46 28° SSW 04:40:26 85° ESE 04:47:15 10° NE
Cosmos 2082 Rocket 2.7 04:41:50 41° SSW 04:41:50 41° SSW 04:45:50 10° S
USA 238 3.5 04:36:47 27° SSW 04:40:33 84° ESE 04:47:21 10° NE
Tsikada Rocket 4.0 04:34:23 10° S 04:40:33 80° E 04:46:50 10° N
OAO 3 Rocket 4.2 04:41:11 34° S 04:41:11 34° S 04:45:37 10° SE
Cosmos 1943 Rocket 2.1 04:40:21 30° SSW 04:43:16 87° WNW 04:48:58 10° NNE
SWAS 4.5 04:44:17 75° ENE 04:44:17 75° ENE 04:48:19 10° NNE
CZ-2C R/B 3.3 04:39:33 10° SSE 04:44:55 54° ENE 04:50:12 10° N
Cosmos 1814 Rocket 3.8 04:44:07 58° NNW 04:45:10 90° NW 04:50:19 10° SSE
Cosmos 2297 3.6 04:43:16 27° SSW 04:46:31 83° WNW 04:52:17 10° NNE
COSMO-SKYMED 1 3.4 04:42:23 10° SSE 04:46:34 49° ENE 04:49:39 17° N
USA 215 3.5 04:44:50 10° ESE 04:51:16 65° NE 04:54:42 29° NW
Cosmos 1867 3.7 04:50:22 37° NNW 04:52:33 74° NE 04:57:59 10° SE
Meteor 2-3 Rocket 3.6 04:51:16 10° SSW 04:56:54 80° W 05:02:39 10° N
Cosmos 2278 Rocket 4.2 05:01:34 13° NNW 05:01:34 13° NNW 05:02:23 10° N
Cosmos 2208 Rocket 4.1 04:56:09 25° NNW 04:59:29 84° ENE 05:04:52 10° SSE
YAOGAN 6 4.5 04:57:33 10° N 05:03:45 19° SSW 05:04:54 10° SSW
Cosmos 1241 Rocket 4.4 05:04:59 23° NNW 05:09:04 84° ENE 05:15:16 10° SSE
Gbstr 26 Del rocket 2.6 05:09:59 60° W 05:10:35 74° SW 05:14:51 10° SE
SKYMED 3 4.5 05:06:17 10° SSE 05:10:36 90° SW 05:14:01 16° NNW
Meteor 1-26 Rocket 4.2 05:06:27 10° NNW 05:12:26 79° W 05:18:11 10° S
SJ-12 3.8 05:09:50 10° N 05:13:56 64° WNW 05:18:00 10° SSW
FALCON 9 DEB 3.4 05:16:31 48° NNW 05:16:31 48° NNW 05:19:33 10° NE
Cosmos 1486 Rocket 4.2 05:16:12 10° SSW 05:21:29 78° ESE 05:26:48 10° NNE
CZ-4C R/B 2.9 05:22:19 10° SSE 05:25:28 69° ENE 05:27:52 16° N
Cosmos 2344 4.0 05:22:20 25° W 05:25:40 37° NW 05:32:53 10° NNE
Genesis I 3.5 05:23:18 24° NNW 05:25:42 69° NE 05:29:44 10° SE
Cosmos 1812 2.6 05:24:20 10° N 05:28:12 86° E 05:32:02 10° S
Cosmos 1782 2.9 05:26:34 25° NNW 05:28:34 50° W 05:32:23 10° S
Cosmos 2263 4.4 05:26:03 10° SSW 05:31:42 75° ESE 05:37:26 10° NNE
Cosmos 1862 3.3 05:28:38 10° S 05:32:34 81° E 05:36:32 10° N
SKYMED 2 3.8 05:30:25 10° S 05:34:36 48° W 05:38:15 13° NNW
Meteor 1-31 Rocket 2.9 05:31:27 10° N 05:35:12 47° WNW 05:38:57 10° SSW
SJ 16-02 4.3 05:32:38 10° SE 05:35:42 19° E 05:38:47 10° NE
CZ-4B R/B 3.6 05:32:46 10° NNE 05:36:15 49° E 05:39:43 10° S
BREEZE-M DEB (TANK) 4.1 05:21:25 10° SW 05:37:41 70° SSE 05:41:44 10° ENE
CZ-4B R/B 4.3 05:37:08 10° ESE 05:39:19 17° ENE 05:41:30 10° NNE
Okean 3 Rocket 3.5 05:43:48 10° SSW 05:48:18 73° W 05:52:52 10° N
SMAP 4.4 05:44:31 10° NNE 05:48:59 43° E 05:53:23 10° S
Cosmos 2369 Rocket 2.2 05:44:42 10° SW 05:50:11 57° WNW 05:55:43 10° NNE
Envisat 3.6 05:46:24 10° N 05:50:54 33° WNW 05:55:24 10° SW
CENTAUR R/B 3.3 05:48:05 15° W 05:52:19 32° NW 05:58:36 10° NNE
Cosmos 2098 Rocket 3.1 05:49:28 10° SSW 05:52:51 41° WNW 05:57:02 10° N
Meteor PRIRODA 3.5 05:51:14 10° N 05:54:51 79° WNW 05:58:27 10° SSW
H-2A R/B 4.0 05:55:10 10° NNW 05:57:45 18° WNW 06:00:20 10° WSW
ADEOS 3.6 05:52:50 10° N 05:57:57 57° WNW 06:03:03 10° SSW
CZ-2C R/B 2.9 05:53:56 10° N 05:58:47 83° WNW 06:03:49 10° SSW
H-2A R/B 2.4 05:54:45 10° SSE 05:58:55 69° ENE 06:03:13 10° N
DNEPR-1 R/B 4.3 05:56:26 10° NNW 06:01:15 70° ENE 06:07:02 10° SE
Landsat 5 4.4 05:59:29 10° SSW 06:03:29 31° W 06:07:31 10° NNW
NOSS 3-2 (C) 4.0 05:58:32 10° WSW 06:03:36 33° NW 06:09:23 10° NNE
Cosmos 968 Rocket 4.4 06:01:24 10° WSW 06:05:43 26° WNW 06:10:02 10° N
Cosmos 921 Rocket 3.7 06:02:38 10° NW 06:06:38 35° W 06:10:41 10° SSW
Cosmos 1766 Rocket 4.0 06:04:13 10° SW 06:08:15 37° WNW 06:12:18 10° N
BREEZE-M DEB (TANK) 4.4 05:52:38 11° WNW 06:08:45 51° SW 06:13:40 10° SSE
Cosmos 1354 Rocket 4.0 06:07:03 10° SSW 06:12:18 78° WNW 06:17:38 10° NNE
Cosmos 2279 Rocket 4.2 06:07:22 10° NNW 06:13:17 49° W 06:19:12 10° SSW
Meteor 1-27 Rocket 4.1 06:08:42 10° N 06:14:20 72° E 06:20:02 10° SSE
ATLAS 3B R/B 4.0 06:11:06 10° S 06:17:11 45° ESE 06:23:30 10° NE
Cosmos 1151 Rocket 3.9 06:14:07 10° NNW 06:17:55 29° W 06:21:41 10° SSW
Nadezhda 4 Rocket 4.0 06:15:20 10° S 06:21:28 80° W 06:27:42 10° N
COSMO-SKYMED 1 4.3 06:20:33 10° SW 06:22:59 15° W 06:25:27 10° WNW
Cosmos 1328 Rocket 4.2 06:20:28 10° NNW 06:24:28 35° W 06:28:26 10° SSW
CZ-2C R/B 4.0 06:21:29 10° SW 06:25:28 20° W 06:29:26 10° NW
Cosmos 1939 Rocket 2.9 06:21:59 10° N 06:25:52 57° WNW 06:29:40 10° SSW
Cosmos 1656 Rocket 4.0 06:20:50 10° SW 06:25:53 40° WNW 06:31:00 10° N
Cosmos 1340 Rocket 3.0 06:22:21 10° S 06:26:16 74° E 06:30:14 10° NNE
Cosmos 1943 Rocket 3.7 06:24:36 10° W 06:27:52 15° NW 06:31:06 10° NNW
Cosmos 2228 Rocket 4.2 06:25:40 10° N 06:30:01 47° ENE 06:34:22 10° SSE
Cosmos 1092 Rocket 4.3 06:27:19 10° S 06:33:31 75° E 06:39:49 10° N
FALCON 9 R/B 4.0 06:19:10 10° W 06:36:49 47° SSW 06:42:07 10° SE
